• en Suisse
  • Liste des pays
  • À 7 jours
  • Température de l'eau
  • Carte satellitaire
  • Carte météo
  • Widgets météo
  • user-avatar
    Se connecter

    Météo par heure à Pichkiryaevo

    Ce jour, 18 Juillet, Mercredi

    Heure Température Précipitation Vent Pression Humidité
    00:00 +20°C° 0,1 mm 4 m/s 737 mmHg 92%
    01:00 +20°C° 0,1 mm 5 m/s 737 mmHg 92%
    02:00 +20°C° 0,1 mm 5 m/s 737 mmHg 92%
    03:00 +20°C° 0 mm 4 m/s 737 mmHg 94%
    04:00 +20°C° 0,3 mm 4 m/s 737 mmHg 94%
    05:00 +20°C° 0,3 mm 4 m/s 736 mmHg 95%
    06:00 +20°C° 0,3 mm 5 m/s 736 mmHg 95%
    07:00 +20°C° 0,3 mm 5 m/s 736 mmHg 93%
    08:00 +21°C° 0,3 mm 5 m/s 736 mmHg 92%
    09:00 +21°C° 0,3 mm 5 m/s 736 mmHg 90%
    10:00 +22°C° 0,5 mm 5 m/s 736 mmHg 88%
    11:00 +22°C° 0,5 mm 5 m/s 736 mmHg 86%
    12:00 +23°C° 0,5 mm 5 m/s 736 mmHg 83%
    13:00 +23°C° 0,6 mm 5 m/s 736 mmHg 81%
    14:00 +25°C° 0,6 mm 5 m/s 736 mmHg 79%
    15:00 +25°C° 0,6 mm 5 m/s 736 mmHg 76%
    16:00 +25°C° 0,4 mm 5 m/s 736 mmHg 78%
    17:00 +23°C° 0,4 mm 5 m/s 736 mmHg 81%
    18:00 +23°C° 0,4 mm 5 m/s 736 mmHg 83%
    19:00 +22°C° 0,1 mm 4 m/s 736 mmHg 86%
    20:00 +21°C° 0,1 mm 4 m/s 736 mmHg 89%
    21:00 +20°C° 0,1 mm 3 m/s 737 mmHg 92%
    22:00 +20°C° 0 mm 3 m/s 737 mmHg 94%
    23:00 +19°C° 0 mm 3 m/s 737 mmHg 95%

    Demain, 19 Juillet, Jeudi

    Heure Température Précipitation Vent Pression Humidité
    00:00 +19°C° 0 mm 3 m/s 737 mmHg 96%
    01:00 +19°C° 0 mm 3 m/s 737 mmHg 96%
    02:00 +19°C° 0 mm 3 m/s 737 mmHg 96%
    03:00 +18°C° 0 mm 3 m/s 737 mmHg 96%
    04:00 +19°C° 0,1 mm 3 m/s 738 mmHg 96%
    05:00 +19°C° 0,1 mm 3 m/s 738 mmHg 95%
    06:00 +19°C° 0,1 mm 3 m/s 738 mmHg 95%
    07:00 +19°C° 0,1 mm 3 m/s 738 mmHg 93%
    08:00 +20°C° 0,1 mm 3 m/s 738 mmHg 92%
    09:00 +20°C° 0,1 mm 3 m/s 738 mmHg 91%
    10:00 +21°C° 0,1 mm 4 m/s 738 mmHg 88%
    11:00 +22°C° 0,1 mm 4 m/s 739 mmHg 85%
    12:00 +22°C° 0,1 mm 4 m/s 739 mmHg 82%
    13:00 +23°C° 0,2 mm 4 m/s 739 mmHg 78%
    14:00 +25°C° 0,2 mm 4 m/s 739 mmHg 74%
    15:00 +26°C° 0,2 mm 4 m/s 739 mmHg 70%
    16:00 +26°C° 0,3 mm 4 m/s 739 mmHg 72%
    17:00 +26°C° 0,3 mm 3 m/s 739 mmHg 74%
    18:00 +25°C° 0,3 mm 3 m/s 739 mmHg 75%
    19:00 +24°C° 0,1 mm 3 m/s 739 mmHg 80%
    20:00 +22°C° 0,1 mm 3 m/s 739 mmHg 86%
    21:00 +21°C° 0,1 mm 3 m/s 739 mmHg 91%
    22:00 +20°C° 0 mm 3 m/s 740 mmHg 92%
    23:00 +20°C° 0 mm 3 m/s 740 mmHg 93%

    Après-demain, 20 Juillet, Vendredi

    Heure Température Précipitation Vent Pression Humidité
    00:00 +19°C° 0 mm 3 m/s 740 mmHg 94%
    01:00 +19°C° 0 mm 3 m/s 740 mmHg 94%
    02:00 +19°C° 0 mm 3 m/s 740 mmHg 94%
    03:00 +19°C° 0 mm 3 m/s 740 mmHg 94%
    04:00 +19°C° 0,2 mm 3 m/s 740 mmHg 92%
    05:00 +20°C° 0,2 mm 3 m/s 740 mmHg 91%
    06:00 +20°C° 0,2 mm 4 m/s 741 mmHg 89%
    07:00 +21°C° 0,4 mm 4 m/s 741 mmHg 87%
    08:00 +22°C° 0,4 mm 4 m/s 741 mmHg 85%
    09:00 +23°C° 0,4 mm 4 m/s 741 mmHg 83%
    10:00 +26°C° 0,5 mm 4 m/s 741 mmHg 75%
    11:00 +28°C° 0,5 mm 4 m/s 741 mmHg 66%
    12:00 +30°C° 0,5 mm 3 m/s 741 mmHg 58%
    13:00 +30°C° 0 mm 4 m/s 741 mmHg 56%
    14:00 +30°C° 0 mm 4 m/s 741 mmHg 54%
    15:00 +32°C° 0 mm 4 m/s 741 mmHg 52%
    16:00 +30°C° 0,2 mm 4 m/s 741 mmHg 58%
    17:00 +29°C° 0,2 mm 4 m/s 741 mmHg 63%
    18:00 +28°C° 0,2 mm 4 m/s 741 mmHg 69%
    19:00 +26°C° 0,1 mm 3 m/s 741 mmHg 76%
    20:00 +24°C° 0,1 mm 3 m/s 742 mmHg 82%
    21:00 +23°C° 0,1 mm 2 m/s 742 mmHg 89%
    22:00 +21°C° 0,3 mm 3 m/s 742 mmHg 90%
    23:00 +21°C° 0,3 mm 3 m/s 742 mmHg 92%

    21 Juillet, Samedi

    Heure Température Précipitation Vent Pression Humidité
    00:00 +21°C° 0,3 mm 3 m/s 742 mmHg 93%
    01:00 +20°C° 0,2 mm 3 m/s 742 mmHg 94%
    02:00 +20°C° 0,2 mm 3 m/s 742 mmHg 95%
    03:00 +20°C° 0,2 mm 2 m/s 742 mmHg 96%
    04:00 +20°C° 0,1 mm 2 m/s 742 mmHg 95%
    05:00 +20°C° 0,1 mm 2 m/s 742 mmHg 94%
    06:00 +21°C° 0,1 mm 3 m/s 742 mmHg 93%
    07:00 +23°C° 0 mm 2 m/s 742 mmHg 87%
    08:00 +25°C° 0 mm 2 m/s 742 mmHg 82%
    09:00 +26°C° 0 mm 2 m/s 742 mmHg 76%
    10:00 +28°C° 0,2 mm 2 m/s 742 mmHg 69%
    11:00 +29°C° 0,2 mm 3 m/s 742 mmHg 62%
    12:00 +31°C° 0,2 mm 3 m/s 742 mmHg 56%
    13:00 +31°C° 0,2 mm 3 m/s 742 mmHg 55%
    14:00 +31°C° 0,2 mm 3 m/s 743 mmHg 54%
    15:00 +32°C° 0,2 mm 4 m/s 743 mmHg 54%
    16:00 +30°C° 0 mm 3 m/s 742 mmHg 58%
    17:00 +29°C° 0 mm 3 m/s 742 mmHg 63%
    18:00 +29°C° 0 mm 2 m/s 742 mmHg 67%
    19:00 +27°C° 0,2 mm 2 m/s 742 mmHg 73%
    20:00 +25°C° 0,2 mm 2 m/s 743 mmHg 79%
    21:00 +24°C° 0,2 mm 2 m/s 743 mmHg 84%
    22:00 +23°C° 0,3 mm 2 m/s 743 mmHg 86%
    23:00 +23°C° 0,3 mm 2 m/s 743 mmHg 88%

    22 Juillet, Dimanche

    Heure Température Précipitation Vent Pression Humidité
    00:00 +21°C° 0,3 mm 3 m/s 743 mmHg 90%
    01:00 +21°C° 0,2 mm 2 m/s 743 mmHg 90%
    02:00 +21°C° 0,2 mm 2 m/s 743 mmHg 91%
    03:00 +21°C° 0,2 mm 2 m/s 743 mmHg 92%
    04:00 +21°C° 0 mm 2 m/s 743 mmHg 91%
    05:00 +21°C° 0 mm 2 m/s 743 mmHg 90%
    06:00 +21°C° 0 mm 2 m/s 743 mmHg 89%
    07:00 +24°C° 0,1 mm 2 m/s 743 mmHg 83%
    08:00 +25°C° 0,1 mm 2 m/s 743 mmHg 78%
    09:00 +27°C° 0,1 mm 3 m/s 743 mmHg 72%
    10:00 +28°C° 0,4 mm 3 m/s 743 mmHg 67%
    11:00 +29°C° 0,4 mm 3 m/s 743 mmHg 62%
    12:00 +30°C° 0,4 mm 3 m/s 743 mmHg 56%
    13:00 +30°C° 0,3 mm 3 m/s 742 mmHg 57%
    14:00 +31°C° 0,3 mm 3 m/s 742 mmHg 58%
    15:00 +31°C° 0,3 mm 3 m/s 742 mmHg 59%
    16:00 +30°C° 0,7 mm 3 m/s 742 mmHg 65%
    17:00 +29°C° 0,7 mm 3 m/s 742 mmHg 71%
    18:00 +28°C° 0,7 mm 3 m/s 742 mmHg 78%
    19:00 +26°C° 0,1 mm 3 m/s 742 mmHg 82%
    20:00 +25°C° 0,1 mm 3 m/s 742 mmHg 87%
    21:00 +24°C° 0,1 mm 2 m/s 743 mmHg 92%
    22:00 +22°C° 0,1 mm 3 m/s 743 mmHg 93%
    23:00 +22°C° 0,1 mm 3 m/s 743 mmHg 95%

    23 Juillet, Lundi

    Heure Température Précipitation Vent Pression Humidité
    00:00 +21°C° 0,1 mm 3 m/s 743 mmHg 96%
    01:00 +21°C° 0,1 mm 3 m/s 743 mmHg 96%
    02:00 +21°C° 0,1 mm 3 m/s 743 mmHg 96%
    03:00 +20°C° 0,1 mm 3 m/s 743 mmHg 97%
    04:00 +21°C° 0,1 mm 3 m/s 743 mmHg 96%
    05:00 +21°C° 0,1 mm 3 m/s 743 mmHg 95%
    06:00 +21°C° 0,1 mm 3 m/s 743 mmHg 94%
    07:00 +22°C° 0 mm 4 m/s 743 mmHg 89%
    08:00 +23°C° 0 mm 4 m/s 743 mmHg 84%
    09:00 +26°C° 0 mm 4 m/s 743 mmHg 80%
    10:00 +26°C° 0,1 mm 4 m/s 743 mmHg 76%
    11:00 +27°C° 0,1 mm 5 m/s 743 mmHg 72%
    12:00 +28°C° 0,1 mm 5 m/s 743 mmHg 68%
    13:00 +27°C° 0,2 mm 5 m/s 743 mmHg 69%
    14:00 +27°C° 0,2 mm 5 m/s 743 mmHg 70%
    15:00 +27°C° 0,2 mm 6 m/s 743 mmHg 71%
    16:00 +26°C° 0,1 mm 5 m/s 744 mmHg 74%
    17:00 +25°C° 0,1 mm 5 m/s 744 mmHg 76%
    18:00 +25°C° 0,1 mm 5 m/s 744 mmHg 78%
    19:00 +22°C° 0 mm 5 m/s 744 mmHg 81%
    20:00 +21°C° 0 mm 4 m/s 744 mmHg 84%
    21:00 +20°C° 0 mm 4 m/s 744 mmHg 87%
    22:00 +19°C° 0 mm 4 m/s 744 mmHg 87%
    23:00 +19°C° 0 mm 4 m/s 744 mmHg 88%
    Voir plus